Regional Weather Roundup
Issued by NWS Cleveland, OH

Home | Current Version | Previous Version | Graphics & Text | Print | Product List | Glossary On
Versions: 1 2 3 4 5 6 7 8 9 10 11 12 13 14 15 16 17 18 19 20 21 22 23 24 25 26 27 28 29 30 31 32 33 34 35 36 37 38 39 40 41 42 43 44 45 46 47 48 49 50
193
ASUS41 KCLE 060000
RWRCLE
OHIO REGIONAL WEATHER ROUNDUP
NATIONAL WEATHER SERVICE WILMINGTON, OH
700 PM EST FRI FEB 05 2016

NOTE: "FAIR" INDICATES FEW OR NO CLOUDS BELOW 12,000 FEET WITH NO
SIGNIFICANT WEATHER AND/OR OBSTRUCTIONS TO VISIBILITY.

OHZ001>008-015>018-024>027-034-035-043-044-060100-
   NORTHWEST OHIO

CITY           SKY/WX    TMP DP  RH WIND       PRES   REMARKS
DEFIANCE       FAIR      34  24  67 VRB5      30.34R WCI  30
FINDLAY        CLOUDY    36  24  62 S8        30.31S
TOLEDO EXPRESS MOCLDY    35  24  64 W13       30.32R WCI  26
TOLEDO EXEC    CLOUDY    36  22  56 S7        30.32S
LIMA           MOCLDY    34  26  72 W10       30.32R WCI  26
$$

OHZ009>014-019>023-028>033-038-089-060100-
   NORTHEAST OHIO

CITY           SKY/WX    TMP DP  RH WIND       PRES   REMARKS
CLE-HOPKINS    FAIR      33  19  56 S5        30.37S WCI  29
CLE-LAKEFRONT  FAIR      36  20  52 S8        30.35R
CUY CO. ARPT   PTCLDY    32  21  64 S6        30.35R WCI  26
LORAIN-ELYRIA  CLOUDY    34  20  56 S6        30.35R WCI  29
ASHTABULA      FAIR      28  20  71 CALM      30.36R
AKRON-CANTON   FAIR      30  18  60 S5        30.35R WCI  25
WOOSTER        NOT AVBL
MANSFIELD      CLOUDY    33  21  61 S8        30.33S WCI  26
YOUNGSTOWN     FAIR      29  16  58 S5        30.35R WCI  24
$$

OHZ042-051>053-060>062-070>072-077>081-060100-
  SOUTHWEST OHIO

CITY           SKY/WX    TMP DP  RH WIND       PRES   REMARKS
CINC-COVINGTON MOCLDY    35  19  52 S5        30.35S
CINC-LUNKEN    FAIR      34  20  56 S7        30.38S WCI  28
HAMILTON       MOCLDY    40  18  41 S5        30.37R
DAYTON         NOT AVBL
WRIGHT-PAT AFB CLOUDY    37  18  45 SE7       30.34R
DAYTON GENERAL CLOUDY    36  18  48 S6        30.33S
WILMINGTON     FAIR      32  23  69 S6        30.35S WCI  26
$$

OHZ036-037-039>041-045>050-054>059-063>069-073>076-082>088-060100-
  CENTRAL AND SOUTHEAST OHIO

CITY           SKY/WX    TMP DP  RH WIND       PRES   REMARKS
COLUMBUS       MOCLDY    35  15  44 S5        30.37R
OSU AIRPORT    MOCLDY    36  18  48 S6        30.36R
BOLTON FIELD   NOT AVBL
RICKENBACK AFB NOT AVBL
NEWARK         FAIR      32  19  58 CALM      30.37R
MARION         CLOUDY    34  20  56 S9        30.34S WCI  27
LANCASTER      FAIR      30  21  69 CALM      30.38R
ZANESVILLE     FAIR      36  17  46 CALM      30.38R
NEW PHILLY     FAIR      30  19  63 CALM      30.38R
$$




USA.gov is the U.S. government's official web portal to all federal, state and local government web resources and services.